ITY1466 LIPZ-LIRF

Flight info

Callsign ITY1466
Flight time N/A
Altitude 35000
Route CHI DCT DIPVO DCT NIKMA DCT RITEB
Aircraft A320/M-SDE3FGHIRWY/LB1

Departure

Time N/A
Airport Venice Marco Polo Airport (LIPZ)

Arrival

Time 2026-02-19 14:29
Airport Rome–Fiumicino Leonardo da Vinci International Airport (LIRF)
Time Latitude Longitude Altitude Speed Heading
2026-02-19 13:51 45.13607 12.33543 15047 ft 376 kts 210°
2026-02-19 13:51 45.11340 12.31663 15465 ft 379 kts 210°
2026-02-19 13:51 45.09051 12.29798 15866 ft 381 kts 207°
2026-02-19 13:52 45.06566 12.28465 16242 ft 384 kts 194°
2026-02-19 13:52 45.01209 12.27827 16965 ft 390 kts 182°
2026-02-19 13:52 44.98491 12.27696 17315 ft 392 kts 182°
2026-02-19 13:53 44.95757 12.27556 17653 ft 394 kts 182°
2026-02-19 13:53 44.93002 12.27411 17972 ft 397 kts 182°
2026-02-19 13:53 44.90240 12.27266 18278 ft 399 kts 182°
2026-02-19 13:53 44.87461 12.27123 18579 ft 401 kts 182°
2026-02-19 13:54 44.84665 12.26980 18872 ft 403 kts 182°
2026-02-19 13:54 44.81857 12.26835 19160 ft 405 kts 182°
2026-02-19 13:54 44.79085 12.26689 19425 ft 407 kts 182°
2026-02-19 13:54 44.76244 12.26543 19866 ft 408 kts 182°
2026-02-19 13:55 44.73456 12.26403 20671 ft 399 kts 182°
2026-02-19 13:55 44.70662 12.26260 20797 ft 404 kts 182°
2026-02-19 13:55 44.67834 12.26113 20924 ft 409 kts 182°
2026-02-19 13:55 44.64981 12.25967 21050 ft 413 kts 182°
2026-02-19 13:56 44.62093 12.25821 21180 ft 417 kts 182°
2026-02-19 13:56 44.56299 12.25532 21544 ft 421 kts 182°
2026-02-19 13:56 44.53317 12.25378 21740 ft 423 kts 182°
2026-02-19 13:57 44.50367 12.25225 21926 ft 424 kts 182°
2026-02-19 13:57 44.47415 12.25068 22102 ft 426 kts 182°
2026-02-19 13:57 44.44447 12.24913 22275 ft 427 kts 182°
2026-02-19 13:57 44.41471 12.24761 22435 ft 428 kts 182°
2026-02-19 13:58 44.38490 12.24611 22591 ft 430 kts 182°
2026-02-19 13:58 44.35619 12.24467 22738 ft 431 kts 182°
2026-02-19 13:58 44.32583 12.24315 22917 ft 431 kts 182°
2026-02-19 13:58 44.29620 12.24165 23044 ft 433 kts 182°
2026-02-19 13:59 44.26609 12.24009 23174 ft 434 kts 182°
2026-02-19 13:59 44.23592 12.23853 23303 ft 435 kts 182°
2026-02-19 13:59 44.20568 12.23699 23430 ft 436 kts 182°
2026-02-19 13:59 44.17536 12.23547 23556 ft 436 kts 182°
2026-02-19 14:00 44.14501 12.23394 23683 ft 437 kts 182°
2026-02-19 14:00 44.08424 12.23093 23935 ft 438 kts 182°
2026-02-19 14:00 44.05367 12.22938 24062 ft 438 kts 182°
2026-02-19 14:01 44.02317 12.22785 24187 ft 439 kts 182°
2026-02-19 14:01 43.99267 12.22630 24312 ft 439 kts 182°
2026-02-19 14:01 43.96215 12.22476 24437 ft 439 kts 182°
2026-02-19 14:01 43.93163 12.22325 24562 ft 439 kts 182°
2026-02-19 14:02 43.90109 12.22176 24687 ft 439 kts 182°
2026-02-19 14:02 43.87052 12.22026 24812 ft 439 kts 182°
2026-02-19 14:02 43.84000 12.21874 24937 ft 439 kts 182°
2026-02-19 14:02 43.80943 12.21721 25061 ft 439 kts 182°
2026-02-19 14:03 43.77895 12.21567 25186 ft 439 kts 182°
2026-02-19 14:03 43.74847 12.21413 25311 ft 438 kts 182°
2026-02-19 14:03 43.71800 12.21259 25436 ft 438 kts 182°
2026-02-19 14:03 43.68758 12.21107 25560 ft 437 kts 182°
2026-02-19 14:04 43.59650 12.20661 25934 ft 436 kts 182°
2026-02-19 14:04 43.56619 12.20513 26059 ft 436 kts 182°
2026-02-19 14:05 43.53590 12.20362 26184 ft 435 kts 182°
2026-02-19 14:05 43.50565 12.20209 26221 ft 434 kts 182°
2026-02-19 14:05 43.47558 12.20058 25971 ft 432 kts 182°
2026-02-19 14:05 43.44555 12.19910 25720 ft 430 kts 182°
2026-02-19 14:06 43.41581 12.19762 25471 ft 428 kts 182°
2026-02-19 14:06 43.38613 12.19617 25220 ft 426 kts 182°
2026-02-19 14:06 43.35661 12.19480 24970 ft 424 kts 182°
2026-02-19 14:06 43.32721 12.19346 24720 ft 422 kts 182°
2026-02-19 14:07 43.29797 12.19213 24469 ft 420 kts 182°
2026-02-19 14:07 43.26924 12.19078 24222 ft 418 kts 182°
2026-02-19 14:07 43.23991 12.18935 23969 ft 416 kts 182°
2026-02-19 14:07 43.21101 12.18792 23719 ft 417 kts 182°
2026-02-19 14:08 43.18199 12.18650 23475 ft 429 kts 182°
2026-02-19 14:08 43.12175 12.18369 22977 ft 436 kts 182°
2026-02-19 14:08 43.09190 12.18228 22725 ft 423 kts 183°
2026-02-19 14:09 43.06265 12.18085 22475 ft 419 kts 183°
2026-02-19 14:09 43.03367 12.17944 22208 ft 416 kts 183°
2026-02-19 14:09 43.00478 12.17809 21982 ft 414 kts 183°
2026-02-19 14:09 42.97661 12.17674 21731 ft 412 kts 184°
2026-02-19 14:10 42.94802 12.17536 21479 ft 411 kts 184°
2026-02-19 14:10 42.91946 12.17399 21228 ft 410 kts 184°
2026-02-19 14:10 42.89116 12.17266 20975 ft 402 kts 184°
2026-02-19 14:10 42.86360 12.17140 20725 ft 392 kts 184°
2026-02-19 14:11 42.83725 12.17020 20481 ft 383 kts 184°
2026-02-19 14:11 42.81094 12.16899 20235 ft 374 kts 183°
2026-02-19 14:11 42.78536 12.16782 20097 ft 362 kts 182°
2026-02-19 14:11 42.76045 12.16664 19819 ft 355 kts 182°
2026-02-19 14:12 42.73631 12.16546 19457 ft 352 kts 182°
2026-02-19 14:12 42.68844 12.17336 18860 ft 350 kts 158°
2026-02-19 14:12 42.66732 12.18843 18406 ft 350 kts 149°
2026-02-19 14:13 42.64641 12.20523 17998 ft 348 kts 149°
2026-02-19 14:13 42.62569 12.22190 17595 ft 346 kts 150°
2026-02-19 14:13 42.60503 12.23848 17193 ft 344 kts 150°
2026-02-19 14:13 42.58454 12.25489 16795 ft 342 kts 150°
2026-02-19 14:14 42.56436 12.27102 16403 ft 340 kts 150°
2026-02-19 14:14 42.54451 12.28688 16089 ft 336 kts 150°
2026-02-19 14:14 42.52439 12.30296 15773 ft 332 kts 150°
2026-02-19 14:14 42.50472 12.31863 15611 ft 323 kts 149°
2026-02-19 14:15 42.48560 12.33383 15446 ft 315 kts 154°
2026-02-19 14:15 42.46680 12.34877 15159 ft 312 kts 154°
2026-02-19 14:15 42.44814 12.36356 14819 ft 310 kts 154°
2026-02-19 14:15 42.42954 12.37827 14489 ft 309 kts 155°
2026-02-19 14:16 42.41105 12.39290 14165 ft 307 kts 154°
2026-02-19 14:16 42.37494 12.42167 13801 ft 293 kts 154°
2026-02-19 14:16 42.35721 12.43421 13650 ft 281 kts 165°
2026-02-19 14:17 42.33883 12.44212 13416 ft 275 kts 168°
2026-02-19 14:17 42.32058 12.44976 13136 ft 274 kts 168°
2026-02-19 14:17 42.30246 12.45738 12850 ft 272 kts 168°
2026-02-19 14:17 42.28444 12.46496 12535 ft 272 kts 165°
2026-02-19 14:18 42.26639 12.47255 12222 ft 271 kts 168°
2026-02-19 14:18 42.24849 12.47995 11937 ft 267 kts 172°
2026-02-19 14:18 42.23068 12.47995 11630 ft 251 kts 202°
2026-02-19 14:18 42.21651 12.46753 11295 ft 243 kts 232°
2026-02-19 14:19 42.20922 12.44729 10948 ft 242 kts 252°
2026-02-19 14:19 42.20427 12.42551 10603 ft 242 kts 251°
2026-02-19 14:19 42.19917 12.40334 10079 ft 249 kts 251°
2026-02-19 14:19 42.19414 12.38160 9698 ft 240 kts 252°
2026-02-19 14:20 42.19221 12.31653 7973 ft 229 kts 245°
2026-02-19 14:20 42.18502 12.29742 7355 ft 228 kts 242°
2026-02-19 14:21 42.17781 12.27910 7100 ft 213 kts 242°
2026-02-19 14:21 42.17099 12.26179 6672 ft 207 kts 242°
2026-02-19 14:21 42.16428 12.24474 6188 ft 204 kts 242°
2026-02-19 14:21 42.15790 12.22778 5706 ft 202 kts 246°
2026-02-19 14:22 42.15314 12.20995 5248 ft 203 kts 251°
2026-02-19 14:22 42.14903 12.19193 4935 ft 200 kts 251°
2026-02-19 14:22 42.14291 12.17526 4533 ft 199 kts 233°
2026-02-19 14:22 42.13320 12.16260 4219 ft 199 kts 217°
2026-02-19 14:23 42.12131 12.15520 4084 ft 196 kts 204°
2026-02-19 14:23 42.10763 12.15307 3790 ft 202 kts 181°
2026-02-19 14:23 42.09421 12.15703 3409 ft 211 kts 169°
2026-02-19 14:23 42.08027 12.16294 3105 ft 209 kts 169°
2026-02-19 14:24 42.06649 12.16876 3026 ft 208 kts 169°
2026-02-19 14:24 42.03892 12.18038 3018 ft 210 kts 174°
2026-02-19 14:24 42.02493 12.18627 3026 ft 211 kts 174°
2026-02-19 14:25 42.01132 12.19207 3023 ft 198 kts 175°
2026-02-19 14:25 41.99845 12.19751 3003 ft 191 kts 176°
2026-02-19 14:25 41.98589 12.20277 2842 ft 187 kts 176°
2026-02-19 14:25 41.97362 12.20793 2651 ft 182 kts 176°
2026-02-19 14:26 41.96168 12.21295 2395 ft 177 kts 176°
2026-02-19 14:26 41.95030 12.21773 2164 ft 174 kts 178°
2026-02-19 14:26 41.93886 12.22253 1927 ft 169 kts 171°
2026-02-19 14:26 41.92776 12.22719 1701 ft 165 kts 163°
2026-02-19 14:27 41.91708 12.23166 1494 ft 155 kts 163°
2026-02-19 14:27 41.90706 12.23586 1325 ft 148 kts 163°
2026-02-19 14:27 41.89738 12.23992 1117 ft 144 kts 163°
2026-02-19 14:27 41.88784 12.24389 934 ft 143 kts 164°
2026-02-19 14:28 41.87837 12.24772 742 ft 142 kts 163°
2026-02-19 14:28 41.85961 12.25570 371 ft 141 kts 163°
2026-02-19 14:28 41.85028 12.25968 174 ft 140 kts 163°
2026-02-19 14:29 41.84102 12.26358 22 ft 136 kts 163°
2026-02-19 14:29 41.83330 12.26680 12 ft 92 kts 162°
2026-02-19 14:29 41.82917 12.26849 12 ft 37 kts 166°
2026-02-19 14:29 41.82677 12.26860 11 ft 32 kts 190°
2026-02-19 14:30 41.82500 12.26807 11 ft 25 kts 192°
2026-02-19 14:30 41.82322 12.26786 11 ft 26 kts 171°
2026-02-19 14:30 41.82141 12.26855 11 ft 27 kts 162°
2026-02-19 14:30 41.81955 12.26933 11 ft 29 kts 162°
2026-02-19 14:31 41.81764 12.27012 12 ft 28 kts 162°
2026-02-19 14:31 41.81584 12.27088 12 ft 20 kts 162°
2026-02-19 14:31 41.81445 12.27146 12 ft 22 kts 162°
2026-02-19 14:31 41.81347 12.27187 12 ft 23 kts 163°
2026-02-19 14:32 41.81191 12.27252 12 ft 24 kts 162°
2026-02-19 14:32 41.80865 12.27340 12 ft 24 kts 190°
2026-02-19 14:32 41.80706 12.27297 12 ft 22 kts 205°
2026-02-19 14:33 41.80628 12.27123 13 ft 23 kts 249°
2026-02-19 14:33 41.80571 12.26916 13 ft 24 kts 249°
2026-02-19 14:33 41.80511 12.26699 15 ft 25 kts 250°
2026-02-19 14:33 41.80467 12.26541 15 ft 13 kts 250°
2026-02-19 14:34 41.80443 12.26454 15 ft 0 kts 250°
2026-02-19 14:34 41.80433 12.26420 15 ft 10 kts 245°
2026-02-19 14:35 41.80358 12.26367 14 ft 15 kts 169°
2026-02-19 14:35 41.80254 12.26411 14 ft 16 kts 172°
2026-02-19 14:35 41.80141 12.26360 14 ft 18 kts 205°
2026-02-19 14:35 41.80021 12.26286 14 ft 20 kts 205°
2026-02-19 14:36 41.79890 12.26205 14 ft 19 kts 205°
2026-02-19 14:36 41.79847 12.26043 14 ft 10 kts 295°
2026-02-19 14:36 41.79871 12.25974 14 ft 7 kts 295°
2026-02-19 14:37 41.79886 12.25933 14 ft 0 kts 295°
2026-02-19 14:37 41.79890 12.25920 14 ft 5 kts 295°
2026-02-19 14:37 41.79908 12.25871 14 ft 7 kts 296°
2026-02-19 14:38 41.79937 12.25790 14 ft 12 kts 295°
2026-02-19 14:38 41.79977 12.25676 14 ft 14 kts 295°
2026-02-19 14:38 41.80001 12.25600 14 ft 6 kts 281°
2026-02-19 14:38 41.79985 12.25567 14 ft 4 kts 210°
2026-02-19 14:39 41.79948 12.25543 14 ft 10 kts 205°
2026-02-19 14:39 41.79876 12.25498 14 ft 12 kts 205°
2026-02-19 14:39 41.79799 12.25450 14 ft 12 kts 205°
2026-02-19 14:39 41.79753 12.25421 14 ft 2 kts 205°
2026-02-19 14:40 41.79744 12.25424 14 ft 2 kts 156°
2026-02-19 14:40 41.79721 12.25475 14 ft 1 kts 115°
2026-02-19 14:40 41.79720 12.25479 14 ft 0 kts 115°